TimeCST,TemperatureF,Dew PointF,Humidity,Sea Level PressureIn,VisibilityMPH,Wind Direction,Wind SpeedMPH,Gust SpeedMPH,PrecipitationIn,Events,Conditions,WindDirDegrees,DateUTC
12:54 AM,32.0,25.0,75,30.50,10.0,NE,4.6,-,N/A,,Clear,40,2012-11-14 06:54:00
1:54 AM,30.9,24.1,76,30.49,10.0,NE,5.8,-,N/A,,Clear,50,2012-11-14 07:54:00
2:54 AM,30.0,23.0,75,30.50,10.0,ENE,4.6,-,N/A,,Clear,60,2012-11-14 08:54:00
3:54 AM,28.9,23.0,78,30.49,10.0,NE,5.8,-,N/A,,Clear,50,2012-11-14 09:54:00
4:54 AM,30.0,24.1,79,30.51,10.0,Calm,Calm,-,N/A,,Clear,0,2012-11-14 10:54:00
5:54 AM,28.9,23.0,78,30.51,10.0,NE,3.5,-,N/A,,Clear,40,2012-11-14 11:54:00
6:54 AM,30.0,24.1,79,30.51,9.0,NE,3.5,-,N/A,,Clear,50,2012-11-14 12:54:00
7:04 AM,30.2,24.8,80,30.50,9.0,NE,3.5,-,N/A,,Partly Cloudy,50,2012-11-14 13:04:00
7:54 AM,34.0,26.1,73,30.53,10.0,NE,5.8,-,N/A,,Clear,50,2012-11-14 13:54:00
8:54 AM,36.0,27.0,70,30.52,10.0,ENE,8.1,-,N/A,,Clear,70,2012-11-14 14:54:00
9:54 AM,39.0,28.0,65,30.52,10.0,East,4.6,-,N/A,,Clear,90,2012-11-14 15:54:00
10:54 AM,43.0,28.0,56,30.49,10.0,East,5.8,-,N/A,,Clear,90,2012-11-14 16:54:00
11:54 AM,45.0,27.0,49,30.46,10.0,Calm,Calm,-,N/A,,Clear,0,2012-11-14 17:54:00
12:54 PM,46.0,27.0,47,30.44,10.0,Calm,Calm,-,N/A,,Clear,0,2012-11-14 18:54:00
1:54 PM,46.9,28.0,48,30.41,10.0,NE,6.9,-,N/A,,Clear,50,2012-11-14 19:54:00
2:54 PM,46.0,28.9,51,30.42,10.0,North,5.8,-,N/A,,Clear,10,2012-11-14 20:54:00
3:54 PM,45.0,28.9,53,30.40,10.0,North,4.6,-,N/A,,Clear,10,2012-11-14 21:54:00
4:54 PM,43.0,28.9,58,30.40,10.0,North,5.8,-,N/A,,Clear,10,2012-11-14 22:54:00
5:54 PM,41.0,28.9,62,30.41,10.0,Calm,Calm,-,N/A,,Clear,0,2012-11-14 23:54:00
6:54 PM,37.9,30.0,73,30.40,10.0,Calm,Calm,-,N/A,,Clear,0,2012-11-15 00:54:00
7:54 PM,36.0,28.9,76,30.40,10.0,Calm,Calm,-,N/A,,Clear,0,2012-11-15 01:54:00
8:54 PM,35.1,27.0,72,30.40,10.0,North,4.6,-,N/A,,Clear,10,2012-11-15 02:54:00
9:54 PM,33.1,28.0,82,30.40,10.0,Calm,Calm,-,N/A,,Clear,0,2012-11-15 03:54:00
10:54 PM,32.0,26.1,79,30.38,10.0,NNE,3.5,-,N/A,,Clear,20,2012-11-15 04:54:00
11:54 PM,28.9,25.0,85,30.38,9.0,Calm,Calm,-,N/A,,Clear,0,2012-11-15 05:54:00